H2SAT (HEINRICH HERTZ)

Last updated on Fri Oct 24 2025 00:02:52 GMT+0000 (Coordinated Universal Time)

1 57213U 23093A 25296.33665895 .00000001 00000+0 00000+0 0 9993 2 57213 0.0439 235.2677 0001513 56.6166 232.0036 0.99791853 8542
UTC large
Height (km)
Speed (km/s)
/
Latitude / Longitude
Inclination (degrees)
Orbital Period (minutes)
Azimuth
Elevation
Range (km)
Doppler Factor

Next 0 passes for location: London (51.5072 / 0.1276)

Sorry there are no passes over London.